Domov               UVHVVR             MKGP            O straneh              
ZDRAVSTVENO VARSTVO RASTLIN
  MREŽA AGROMET. POSTAJ
 ► PROGNOSTIČNA OBVESTILA
AGROMETEOROLOŠKI PODATKI -
ARSO
OBVLADOVANJE TVEGANJ ZARADI
NEUGODNIH VREMENSKIH RAZMER
  ► NARAVNE NESREČE
  ► SUŠA/MOČA
  ► NAMAKANJE
  ► ŽLED (gozdarstvo)
KARTOGRAFSKI PRIKAZI
SPLETNE POVEZAVE
PROJEKTI IN PUBLIKACIJE

AGROMETEOROLOŠKA MREŽA: VREMENSKE POSTAJE IN FENOLOŠKA OPAZOVANJA

Pregled podatkov za lokacijo Vidonci, meteorološka postaja 42838

Pregled senzorjev na lokaciji

ID Ime Zadnja
vrednost
Datum
zadnje
spremembe
Tip
senzorja
2110 Omočenost lista (U) 0 U 17.10.2017 14:30 A730WET
2111 Temperatura 2 m ( °C) 22,65 °C 17.10.2017 14:30 50YA
2112 Relativna vlaga 2 m (% RH) 46,52 % RH 17.10.2017 14:30 50YA
2113 Padavine 0.2 mm (mm) 0 mm 17.10.2017 14:30 Rain-O-Matic

Pregled podatkov zadnjih 24 ur

Zap.
št.
Datum in čas Vidonci
Omočenost
lista
Padavine
0.2
mm
Relativna
vlaga
2
m
Temperatura
2
m
0 17.10.2017 13:30 0 0 46,52 22,65
1 17.10.2017 13:00 0 0 46,89 22,18
2 17.10.2017 12:30 0 0 48,01 22,04
3 17.10.2017 12:00 0 0 52,59 21,31
4 17.10.2017 11:30 0 0 57,51 20,7
5 17.10.2017 11:00 0 0 60,28 20,33
6 17.10.2017 10:30 0 0 63,02 19,61
7 17.10.2017 10:00 0 0 66,61 18,88
8 17.10.2017 09:30 0 0 68,62 18,29
9 17.10.2017 09:00 0 0 70,64 17,09
10 17.10.2017 08:30 0 0 73,49 16,8
11 17.10.2017 08:00 9 0 78,29 15,35
12 17.10.2017 07:30 10 0 89,92 13,42
13 17.10.2017 07:00 10 0 91,91 11,25
14 17.10.2017 06:30 10 0 91,91 10,25
15 17.10.2017 06:00 10 0 91,81 10,12
16 17.10.2017 05:30 10 0 91,79 9,91
17 17.10.2017 05:00 10 0 91,58 10,1
18 17.10.2017 04:30 10 0 91,54 9,93
19 17.10.2017 04:00 10 0 91,05 9,68
20 17.10.2017 03:30 10 0 90,94 9,92
21 17.10.2017 03:00 10 0 90,34 9,74
22 17.10.2017 02:30 10 0 89,36 9,98
23 17.10.2017 02:00 10 0 88,9 10,1
24 17.10.2017 01:30 10 0 87,94 10,37
25 17.10.2017 01:00 10 0 85,97 10,68
26 17.10.2017 00:30 10 0 85,32 10,88
27 17.10.2017 00:00 10 0 85,44 10,93
28 16.10.2017 23:30 10 0 85,14 11,14
29 16.10.2017 23:00 10 0 84,21 11,47
30 16.10.2017 22:30 10 0 83,55 11,77
31 16.10.2017 22:00 10 0 81,8 12,06
32 16.10.2017 21:30 10 0 82,88 12,31
33 16.10.2017 21:00 10 0 82,8 12,6
34 16.10.2017 20:30 10 0 81,51 13,14
35 16.10.2017 20:00 10 0 79,05 13,73
36 16.10.2017 19:30 10 0 77,93 14,31
37 16.10.2017 19:00 10 0 83,77 13,91
38 16.10.2017 18:30 10 0 83,4 14,4
39 16.10.2017 18:00 6 0 80,14 15,33
40 16.10.2017 17:30 3 0 75,18 16,58
41 16.10.2017 17:00 0 0 66,89 18,36
42 16.10.2017 16:30 0 0 57,17 20,53
43 16.10.2017 16:00 0 0 53,89 21,38
44 16.10.2017 15:30 0 0 53,27 21,53
© 2011 Ministrstvo za kmetijstvo, gozdarstvo in prehrano. Vse pravice pridržane.